Location: Lombard
(41.8800°N, 88.0080°W)
Time: 14:31:07
(UTC-05:00)

FO-99 - Visible Passes

Search period start: 16 May 2022 00:00
Search period end: 26 May 2022 00:00
Orbit: 463 x 489 km, 97.1° (Epoch: 16 May)

Date Brightness Start Highest point End Pass type
(mag) Time Alt. Az. Time Alt. Az. Time Alt. Az.
17 May ? 21:20:11 10° WSW 21:21:43 12° W 21:23:17 10° WNW visible
18 May ? 20:51:31 10° SSW 20:54:33 26° W 20:57:37 10° NW visible
21 May ? 21:04:14 10° SW 21:06:48 18° W 21:09:23 10° NW visible
24 May ? 21:17:05 10° WSW 21:18:50 13° W 21:20:37 10° WNW visible
25 May ? 20:48:23 10° SSW 20:51:30 27° W 20:54:39 10° NW visible
